RH
5 5 5 6 10 14 15 16 19 25 28 40 55 64 67 57 45 41 39 39 40 45 45 47 45 39 55 100 100 100 100 100 98 97 83 77 82 88 87 78 80 86 92
3 4 6 5 5 7 12 15 15 18 23 25 35 48 64 65 50 40 41 51 43 39 43 36 34 38 35 41 65 93 100 100 100 100 93 63 58 80 78 95 100 94 100
4 4 4 4 5 5 6 10 14 15 18 20 24 30 42 56 55 47 48 43 63 51 44 49 40 42 41 34 34 37 49 81 100 100 100 100 92 90 72 67 77 80 81
4 4 4 4 3 5 6 5 8 14 16 18 19 21 25 35 45 43 46 44 50 72 60 49 56 50 53 48 50 41 34 33 52 84 70 79 86 100 100 100 100 100 100
3 3 4 4 3 3 4 6 6 6 12 16 17 18 18 22 30 43 40 43 42 58 80 80 79 63 54 54 48 56 53 40 34 36 36 42 47 66 70 66 83 55 73
3 3 4 4 4 4 3 4 6 6 6 9 15 17 18 18 22 24 33 34 43 42 62 76 92 90 69 65 68 58 61 57 53 47 38 32 38 41 44 44 51 43 43
4 4 4 4 4 4 4 4 4 5 6 6 7 13 16 16 17 19 21 21 33 44 49 72 73 80 93 72 63 79 83 80 78 74 62 48 39 39 40 38 40 42 46
4 5 5 4 4 4 4 4 4 4 5 6 6 6 9 14 14 17 18 19 22 32 47 70 67 68 77 73 86 80 78 78 80 78 69 71 63 52 46 41 38 42 39
5 5 5 5 5 5 5 5 4 4 4 4 6 6 6 6 10 14 17 17 19 22 35 47 80 85 85 86 87 80 94 89 76 79 78 77 69 63 55 48 46 48 43
6 6 6 6 6 6 6 6 5 5 5 4 4 4 6 5 5 8 14 16 18 18 20 44 53 63 84 92 72 82 97 89 82 65 69 73 68 68 62 57 52 58 52
6 6 6 6 6 7 7 6 6 5 4 4 4 4 4 4 5 6 7 12 16 18 19 22 44 56 64 78 91 87 95 88 94 69 54 66 66 54 62 62 62 63 64
7 7 7 8 8 8 8 7 6 5 5 5 4 4 4 4 4 5 6 6 8 15 19 23 22 27 36 61 77 83 94 93 100 95 73 56 53 67 68 73 61 66 76
7 8 8 8 8 8 8 7 6 6 6 6 5 5 4 4 4 4 4 6 6 8 14 19 18 22 29 46 81 74 59 80 92 71 65 60 67 85 85 74 68 72 72
9 9 9 9 9 9 8 9 8 8 7 7 6 5 5 4 4 4 4 4 6 7 8 10 14 21 26 33 38 51 59 71 75 70 76 76 87 84 67 67 72 71 74
10 10 9 9 9 10 10 8 8 8 8 8 7 6 5 5 4 4 4 4 5 6 7 7 8 11 16 22 30 46 53 68 70 80 91 80 69 97 100 82 74 68 64
10 10 10 10 10 10 9 9 10 9 10 9 8 8 7 6 6 5 5 5 6 6 7 8 8 9 11 23 39 60 86 82 82 81 92 88 92 96 84 89 74 69 64
11 11 10 11 11 11 11 10 9 11 12 12 11 12 10 10 8 8 7 6 6 7 9 9 10 11 12 17 32 43 50 63 85 94 100 82 85 86 82 73 66 59 60
12 12 12 11 11 11 12 12 12 11 14 15 17 16 15 14 13 12 11 12 9 9 10 12 12 12 13 14 16 23 41 66 68 59 79 90 81 64 57 54 53 52 51
13 13 13 12 12 11 12 13 13 15 15 17 24 22 19 16 17 20 19 18 15 14 13 15 15 16 16 15 43 34 36 48 77 53 58 62 63 72 73 63 54 48 48
14 13 13 14 12 12 12 13 17 16 17 21 21 24 28 22 22 32 29 24 24 19 17 16 18 37 40 24 39 96 100 100 78 80 80 80 74 73 59 67 69 68 50
15 15 13 12 14 13 12 13 16 20 21 19 26 26 25 26 22 26 45 29 32 33 25 28 24 68 79 100 80 88 100 100 92 97 100 98 85 76 79 62 51 52 44
14 16 15 13 12 13 14 13 14 16 19 27 24 33 32 25 27 31 39 38 54 60 59 72 73 63 100 100 100 100 99 93 100 91 80 77 74 73 72 56 45 42 42
13 13 15 14 12 11 12 14 14 15 18 21 30 29 29 37 29 30 43 52 60 65 66 80 100 82 76 100 100 100 100 90 79 74 75 62 55 47 46 47 48 50 37
17 14 13 14 14 12 11 11 13 13 15 18 22 30 36 30 41 39 38 40 56 59 70 71 77 88 92 73 80 80 79 68 58 53 57 56 44 43 43 43 42 41 52
17 16 14 12 13 14 12 12 11 11 12 14 15 19 22 33 32 34 36 38 51 44 56 63 63 65 71 78 70 54 54 57 46 40 39 39 37 42 47 44 48 57 59
16 15 15 14 12 11 12 12 11 11 11 11 12 13 15 19 26 30 31 30 33 41 44 40 43 59 56 59 57 63 48 42 40 37 39 40 44 43 47 54 66 61 64
Wind_Speed
86 94 100 108 112 114 116 119 123 127 131 137 140 139 138 137 136 133 128 126 124 120 118 113 108 104 105 104 100 97 93 94 97 95 91 87 83 81 82 80 81 86 87
75 82 90 97 104 112 116 118 119 123 127 132 138 140 140 139 137 136 133 130 125 123 119 117 112 108 105 104 104 100 100 98 93 91 91 88 85 83 81 82 87 87 88
68 72 79 86 95 102 111 117 117 120 125 128 131 137 140 141 140 138 137 134 132 126 123 119 115 113 109 103 99 98 101 100 99 93 89 90 90 89 86 85 84 85 84
62 63 69 76 83 91 100 109 116 119 121 126 128 131 135 138 140 139 140 138 134 132 127 121 117 116 113 109 103 100 100 100 102 103 98 96 96 93 90 88 90 86 87
53 55 60 67 73 80 88 98 108 115 120 122 126 129 130 132 136 139 139 140 137 134 131 127 123 121 114 111 109 106 103 102 100 100 97 97 98 97 96 97 96 94 92
44 47 53 59 65 71 78 85 96 105 113 120 123 126 129 130 131 133 136 136 138 136 131 130 127 125 120 113 110 108 109 107 103 103 99 96 98 99 99 97 99 99 97
36 39 45 51 57 63 69 77 85 94 104 112 119 123 125 129 131 130 130 130 133 134 131 131 128 125 121 118 113 109 111 111 108 106 103 99 100 102 102 99 99 98 98
31 33 39 44 49 56 63 70 76 84 93 102 110 116 122 125 125 129 129 127 126 127 130 131 131 126 123 120 117 114 113 111 109 107 106 104 105 106 105 104 99 100 96
26 28 33 37 43 48 55 62 68 75 82 90 98 105 111 116 118 120 125 125 123 122 126 127 131 130 128 125 121 115 114 113 112 110 108 108 109 108 107 105 104 103 100
23 25 29 34 40 44 49 54 60 67 74 80 86 93 99 104 108 115 118 119 120 121 118 124 130 129 130 128 121 117 118 113 115 110 111 111 110 111 108 107 106 109 107
18 22 26 30 34 37 43 48 54 60 65 71 76 80 85 91 97 103 110 114 116 119 120 120 128 128 127 125 124 119 116 114 115 113 112 111 110 108 109 110 110 111 112
15 18 21 24 29 33 37 43 48 52 57 62 66 70 75 80 85 92 99 105 109 114 118 122 122 119 119 121 122 118 118 117 117 119 115 110 107 108 110 114 112 110 109
12 15 19 22 27 30 33 36 40 44 48 53 57 61 64 70 75 80 86 94 101 107 114 116 116 112 115 122 128 122 112 113 117 114 109 109 107 109 112 110 111 110 111
11 14 18 22 25 26 31 33 37 41 45 48 51 54 57 60 65 71 77 84 91 98 104 106 105 114 116 113 111 113 113 114 114 111 111 109 111 112 110 110 112 113 115
10 13 17 20 22 25 27 31 36 38 40 42 43 45 48 51 56 61 67 72 78 84 92 96 98 99 98 98 102 111 113 113 114 115 116 114 112 116 119 116 117 117 115
9 13 15 18 20 23 27 32 35 35 36 37 39 40 43 44 49 53 58 64 70 76 81 85 88 90 91 97 105 115 121 120 120 118 117 118 121 124 121 121 118 119 122
9 12 15 17 20 22 27 32 34 35 35 36 37 38 41 43 45 48 50 56 62 68 72 76 80 84 88 95 105 106 109 118 129 130 129 129 129 129 129 125 123 121 122
9 11 13 17 20 22 28 31 34 36 37 37 37 39 42 43 43 44 47 50 55 61 65 69 73 75 80 85 91 97 104 114 113 113 116 118 120 119 117 115 113 112 112
9 11 14 17 20 24 28 31 34 36 38 39 40 39 41 44 44 46 47 50 51 55 61 65 67 67 74 79 80 85 92 101 104 108 112 115 114 110 111 109 110 109 109
8 12 14 18 21 24 29 32 34 37 39 40 43 46 45 46 49 50 51 52 54 55 60 65 67 69 70 72 80 82 86 91 95 95 97 101 104 102 102 101 102 102 107
8 11 15 18 21 25 29 32 36 38 39 43 44 46 50 50 52 55 56 56 59 61 64 69 73 76 74 77 81 89 92 96 95 94 96 99 98 99 102 103 102 101 101
8 10 13 17 21 24 29 32 37 40 42 44 46 48 50 52 55 57 60 62 65 67 69 75 79 80 84 83 88 93 94 95 96 96 98 98 102 101 102 99 98 95 91
7 9 12 15 18 22 26 32 36 41 43 46 47 49 51 52 56 60 64 66 70 73 75 78 86 86 88 88 91 93 95 95 95 96 96 97 96 97 95 95 91 88 78
9 9 10 13 16 20 23 29 35 39 44 47 50 52 53 55 59 62 65 68 73 77 80 83 86 90 93 93 92 93 97 97 96 95 94 95 94 89 86 81 80 81 83
10 10 11 12 14 17 21 25 30 34 39 45 49 53 56 58 60 64 66 70 75 76 82 83 86 90 92 93 93 91 94 95 93 93 92 89 83 83 84 83 81 82 77
11 11 11 12 14 16 19 22 26 30 35 38 43 50 54 59 62 63 65 68 71 78 80 83 86 89 90 92 93 95 93 91 90 85 84 83 83 80 79 81 82 75 75
Wind_Direction
245 243 240 238 237 236 234 232 230 230 229 226 226 225 225 226 225 224 225 227 228 231 232 231 232 234 234 234 235 238 241 244 247 251 252 254 254 255 257 258 258 257 259
244 242 240 238 236 234 234 233 230 229 229 229 226 225 225 225 226 225 225 226 228 230 231 232 232 233 234 235 238 239 242 246 247 248 252 255 257 255 256 258 259 260 261
248 242 239 237 236 234 232 232 231 229 228 228 228 226 225 225 226 226 226 226 227 229 230 231 233 234 235 234 237 239 242 244 247 248 248 253 255 257 258 259 260 262 265
249 244 240 238 235 233 232 231 231 230 228 227 228 228 227 226 225 227 227 227 226 228 229 230 232 234 236 237 236 238 240 242 244 247 248 251 253 254 256 258 260 259 262
248 244 238 236 235 232 231 229 229 230 229 228 227 227 227 228 227 226 227 228 227 227 229 230 231 234 235 237 239 239 240 242 244 247 248 251 253 255 257 257 259 262 262
246 240 235 234 233 230 229 228 228 228 229 229 228 227 227 227 227 227 227 227 228 228 228 231 231 233 234 235 236 239 242 243 244 246 248 249 252 254 256 258 259 263 265
244 238 234 232 232 230 227 225 225 226 227 228 229 228 227 227 227 227 227 228 228 228 229 231 232 232 234 235 235 237 240 242 244 246 248 249 252 254 255 256 258 260 262
245 237 233 230 228 227 225 225 224 224 225 227 227 228 228 228 226 226 227 227 228 228 229 230 232 233 234 235 235 236 238 241 243 246 248 249 251 252 254 256 258 259 262
243 234 229 226 224 222 223 223 223 224 225 226 227 228 228 228 227 226 227 227 227 227 229 230 232 233 234 235 237 238 239 239 242 244 246 248 251 253 255 257 258 259 260
239 230 226 224 222 220 220 221 222 224 224 225 226 227 228 229 227 226 226 226 225 226 227 229 231 233 235 236 237 238 239 240 242 243 245 247 250 251 253 255 258 259 260
238 231 226 223 222 219 218 219 220 222 224 226 226 227 228 228 227 226 226 225 224 224 225 225 229 230 233 236 238 239 240 241 243 245 246 247 249 252 253 255 257 258 260
236 226 223 218 215 216 217 219 220 222 223 225 225 226 227 227 227 225 224 223 223 223 223 225 226 228 230 233 237 238 239 241 244 246 247 248 250 252 254 255 257 259 261
231 222 214 213 212 211 215 217 218 220 222 223 223 223 224 225 225 225 223 223 222 221 223 224 224 225 228 230 235 237 238 242 244 246 248 250 251 251 252 255 258 259 261
230 218 215 215 211 212 212 217 219 218 218 219 220 220 220 221 222 222 222 221 220 220 222 222 221 223 225 228 231 235 238 240 243 246 247 249 250 252 255 257 258 259 260
217 214 211 212 210 210 217 215 212 210 209 211 214 214 215 215 216 218 219 220 220 220 219 220 220 222 224 225 228 234 237 241 243 246 248 251 253 253 254 256 257 260 262
214 215 212 212 210 212 210 212 206 205 203 204 207 207 209 209 211 213 214 216 216 217 217 218 219 220 220 225 230 234 237 238 241 244 246 248 248 250 252 254 258 260 263
210 210 211 208 207 210 206 206 204 197 197 199 199 199 202 203 205 206 209 213 212 212 213 214 215 217 218 220 225 227 231 235 238 241 244 246 247 251 253 255 257 259 261
219 210 211 209 207 205 204 204 201 197 193 193 196 195 197 197 199 200 201 205 208 209 208 209 211 212 214 217 221 223 224 229 235 236 239 245 248 250 252 254 256 257 260
229 215 211 210 210 205 204 205 203 199 197 194 193 195 198 195 194 192 195 198 201 202 202 203 202 206 210 211 211 216 222 225 231 234 237 240 244 248 251 255 258 259 261
236 224 214 210 211 210 207 203 204 204 201 198 197 192 196 196 193 190 193 192 192 197 198 198 197 196 204 207 207 207 211 221 227 232 235 238 242 245 250 251 254 257 261
252 232 224 214 211 213 212 208 205 205 206 204 198 201 197 197 198 194 192 194 191 191 192 195 197 192 197 199 208 210 218 222 223 224 227 233 238 242 246 250 254 256 260
255 244 232 225 219 216 215 212 209 209 207 207 206 202 202 201 198 197 196 196 191 191 192 192 195 197 196 202 206 212 217 220 224 229 232 236 239 242 247 251 255 258 263
260 241 238 233 225 222 219 218 214 213 212 209 209 210 205 202 203 201 199 196 196 193 195 194 199 203 200 204 212 218 222 225 229 232 235 238 242 245 249 252 257 257 262
269 250 236 234 232 226 222 218 219 219 216 215 210 210 211 208 205 208 204 205 202 200 200 202 202 205 208 211 215 219 223 227 230 232 235 239 242 246 250 252 255 261 265
264 259 250 239 233 232 228 223 221 221 221 221 218 214 212 212 212 210 210 210 209 209 209 209 210 211 213 216 222 225 227 231 234 236 239 243 247 248 250 254 259 261 266
264 250 251 247 241 235 231 230 226 224 224 224 222 222 218 216 215 215 216 215 215 215 217 217 216 218 220 222 225 229 234 236 238 242 244 245 247 251 255 257 262 261 263